This is the latest recevied weather packets stored in our database for station/object vk4zu-13. If no packets are shown the sender has not sent any weather packets the latest 10 day(s).
| Time | Temp. | Humidity | Pressure | Rain* | Wind** | Luminosity | Snow |
|---|---|---|---|---|---|---|---|
| 1778128324 | 26.11° C | 55% | 1013.3 hPa | 0 mm | - | 262 W/m² | - |
| 1778128254 | 26.11° C | 56% | 1013.3 hPa | 0 mm | - | 216 W/m² | - |
| 1778128184 | 26.67° C | 55% | 1013.3 hPa | 0 mm | - | 202 W/m² | - |
| 1778128119 | 26.67° C | 56% | 1013.3 hPa | 0 mm | - | 195 W/m² | - |
| 1778128065 | 26.67° C | 57% | 1013.2 hPa | 0 mm | - | 223 W/m² | - |
| 1778127993 | 26.67° C | 55% | 1013.2 hPa | 0 mm | - | 288 W/m² | - |
| 1778127923 | 26.67° C | 54% | 1013.2 hPa | 0 mm | - | 220 W/m² | - |
| 1778127864 | 26.67° C | 54% | 1013.2 hPa | 0 mm | - | 279 W/m² | - |
| 1778127806 | 26.67° C | 52% | 1013.2 hPa | 0 mm | - | 418 W/m² | - |
| 1778127739 | 26.67° C | 52% | 1013.2 hPa | 0 mm | - | 345 W/m² | - |
| 1778127665 | 26.67° C | 56% | 1013.2 hPa | 0 mm | - | 369 W/m² | - |
| 1778127595 | 26.67° C | 55% | 1013.3 hPa | 0 mm | - | 394 W/m² | - |
| 1778127526 | 26.67° C | 55% | 1013.2 hPa | 0 mm | - | 381 W/m² | - |
| 1778127456 | 26.67° C | 54% | 1013.2 hPa | 0 mm | - | 290 W/m² | - |
| 1778127388 | 26.67° C | 53% | 1013.2 hPa | 0 mm | - | 230 W/m² | - |
| 1778127321 | 26.67° C | 57% | 1013.2 hPa | 0 mm | - | 230 W/m² | - |
| 1778127260 | 26.67° C | 55% | 1013.2 hPa | 0 mm | - | 204 W/m² | - |
| 1778127200 | 26.67° C | 53% | 1013.2 hPa | 0 mm | - | 251 W/m² | - |
| 1778127126 | 26.67° C | 54% | 1013.3 hPa | 0 mm | - | 309 W/m² | - |
| 1778127053 | 26.67° C | 53% | 1013.3 hPa | 0 mm | - | 243 W/m² | - |
| 1778126990 | 26.67° C | 53% | 1013.3 hPa | 0 mm | - | 315 W/m² | - |
| 1778126927 | 26.67° C | 53% | 1013.3 hPa | 0 mm | - | 308 W/m² | - |
| 1778126868 | 26.67° C | 55% | 1013.3 hPa | 0 mm | - | 350 W/m² | - |
| 1778126799 | 26.67° C | 57% | 1013.4 hPa | 0 mm | - | 427 W/m² | - |
| 1778126727 | 26.67° C | 53% | 1013.2 hPa | 0 mm | - | 446 W/m² | - |
* Rain latest hour (hover to see other rain measurements)
** Current wind speed in m/s (hover to see current wind gust speed)